Погода в Капфенберге

Австрия     47°26′36″N   15°17′24″E
темп.,
°C
ветер,
м/с
пор.,
м/с
влажн.,
%
обл.,
%
осадки,
мм/ч
давл.,
гПа
погр.,
м
20 апреля, вт
вт2023:00+1ссз1295100 0.1 101794
02:00+1сз1298100 0.4 1017119
05:00+1сз1299100 1.2 1016186
08:00+2зсз1298100 2.7 1017213
11:00+2ссз1298100 3.7 1017265
14:00+5ссз228879 4.1 1016536
17:00+6ссз227526 0.1 1015691
20:00+1ссз22955 0.1 101722
21 апреля, ср
ср2123:00−1ссз21965 0.0 101917
02:00−2сз21914 0.0 101911
05:00−2ссз21875 0.0 101811
08:00+4з01675 0.0 1017130
11:00+12з01440 0.0 10151317
14:00+13ссз224172 0.2 10132080
17:00+10з116890 1.0 1013345
20:00+4в009898 3.6 101618
22 апреля, чт
чт2223:00+2сз21955 0.1 101714
02:00+2сз119098 0.1 101711
05:00+2сз11898 0.0 101711
08:00+6сз118395 0.0 1016110
11:00+10ссз1172100 1.4 1015723
14:00+8св2278100 4.9 1016747
17:00+7с2382100 1.1 1017656
20:00+3с2397100 1.6 1020190
23 апреля, пт
пт2323:00−1сз229426 0.0 102323
02:00−1ссз22957 0.1 102331
05:00−2сз22965 0.1 102425
08:00+2зсз13826 0.1 1025362
11:00+7сз27415 0.1 10231718
14:00+9ссз363940 0.1 10221976
17:00+8ссз384419 0.0 10221920
20:00+2ссз22764 0.0 102615
24 апреля, сб
сб2423:000ссз118259 0.0 102816
02:00−1ссз118628 0.0 102812
05:00−2ссз11905 0.0 102815
08:00+3ю00643 0.0 1026317
11:00+10ю134223 0.0 10231523
14:00+14вюв03316 0.0 10192080
17:00+12с233594 0.0 10181586
20:00+5с227599 0.0 102133